カタログに戻る

COSMOS 249 DEB

運用中LEO
NORAD 3874·DEBRIS·🇷🇺 Russia

打ち上げ Oct 20, 1968 から Baikonur Cosmodrome

Loading…

次のパス (今後24時間)

TLE

最新Source: Space-Track

元期: Sep 14, 2026, 00:08 UTC

1 03874U 68091BH  26257.00566491  .00000662  00000-0  69892-3 0  9990
2 03874  62.2529 107.8389 0604964 211.9155 144.3835 13.21054369712405

AllMySatでCOSMOS 249 DEBをリアルタイム追跡

Download on the App Store